www.pogodaiklimat.ru

Погода и климат >> Архив погоды >> Австралия >> Квинсленд >> Хьюэнден


ПОГОДА в Хьюэндене

  • Прогноз погоды в Хьюэндене
  • Монитор погоды в Хьюэндене

АРХИВ ПОГОДЫ в Хьюэндене

Время (UTC), дата Ветер
(напр.,м/с)
 
Видим.   Явления Облачность Т
(С)
Тd
(С)
f
(%)
Тe
(С)
Тes
(С)
Комфортность P
(гПа)
Po
(гПа)
Тmin
(С)
Tmax
(С)
R
(мм)
R24
(мм)
S
(см)
14 11.04 СВ 3 н/о 9/0
[]
+23.4 +11.8 48 +26 +26 жарко 1013.4 977.6 +33.2
17 11.04 СВ 7 н/о 9/0
[]
+23.4 +15.5 61 +28 +28 душно 1012.8 977.0
20 11.04 В 4 н/о н/о +21.0 +15.1 69 +24 +24 комфорт 1014.6 978.7
23 11.04 В 5 н/о н/о +24.7 +13.9 51 +27 +27 жарко 1016.7 980.8
02 12.04 В 6 н/о н/о +29.4 +11.9 34 +30 +30 жарко 1015.0 979.1 +20.2
05 12.04 В 5 н/о 1/0 2000 м
[]
+30.9 +10.3 28 +31 +36 жарко 1012.7 976.9
08 12.04 ЮВ 5 н/о 3/0
[]
+28.4 +11.0 34 +29 +29 жарко 1013.4 977.6
11 12.04 ЮВ 4 н/о н/о +24.4 +11.4 44 +26 +26 жарко 1015.8 979.9
14 12.04 В 5 н/о н/о +23.0 +11.7 49 +25 +25 комфорт 1015.8 979.9
17 12.04 В 5 н/о н/о +20.9 +10.7 52 +23 +23 комфорт 1015.2 979.3
20 12.04 В 4 н/о н/о +18.4 +10.5 60 +19 +19 1016.3 980.4
23 12.04 В 7 н/о н/о +24.4 +11.0 43 +26 +26 жарко 1017.8 981.8
02 13.04 В 7 н/о н/о +28.2 +7.4 27 +28 +28 жарко 1015.9 980.0
05 13.04 В 7 н/о н/о +30.0 +7.2 24 +29 +29 жарко 1012.9 977.1
08 13.04 ЮВ 5 н/о н/о +27.3 +7.2 28 +27 +27 жарко 1013.6 977.8
11 13.04 ЮВ 3 н/о н/о +21.3 +7.5 41 +22 +22 комфорт 1015.8 979.9
14 13.04 ЮВ 4 н/о н/о +20.4 +8.7 47 +22 +22 комфорт 1015.5 979.6 +30.4
17 13.04 ЮВ 4 н/о н/о +19.7 +9.3 51 +21 +21 комфорт 1014.7 978.8
20 13.04 ЮВ 3 н/о н/о +17.7 +10.1 61 +18 +18 1015.1 979.2
23 13.04 В 9 н/о н/о +24.9 +9.6 38 +26 +26 жарко 1016.6 980.7
02 14.04 В 8 н/о н/о +27.9 +6.6 26 +27 +27 жарко 1015.0 979.1 +17.0
05 14.04 В 6 н/о н/о +30.2 +7.4 24 +29 +29 жарко 1012.4 976.6
08 14.04 В 5 н/о н/о +28.2 +8.0 28 +28 +28 жарко 1012.6 976.8
11 14.04 ЮВ 4 н/о н/о +23.9 +9.9 41 +25 +25 комфорт 1014.4 978.5
14 14.04 ЮВ 5 н/о н/о +22.2 +8.7 42 +24 +24 комфорт 1014.0 978.2 +30.9
17 14.04 В 4 н/о н/о +21.0 +7.6 42 +22 +22 комфорт 1013.4 977.6
20 14.04 В 3 н/о н/о +17.6 +11.2 66 +18 +18 1014.9 979.0
23 14.04 В 6 н/о н/о +25.2 +10.6 40 +26 +26 жарко 1017.0 981.1
02 15.04 В 5 н/о н/о +28.4 +7.1 26 +28 +28 жарко 1015.1 979.2 +17.4
05 15.04 В 5 н/о н/о +29.7 +7.0 24 +29 +29 жарко 1012.1 976.3
08 15.04 ЮВ 4 н/о н/о +27.5 +5.7 25 +27 +27 жарко 1012.6 976.8
11 15.04 ЮВ 4 н/о н/о +22.5 +7.9 39 +24 +24 комфорт 1014.9 979.0
14 15.04 ЮВ 4 н/о н/о +21.7 +7.9 41 +23 +23 комфорт 1015.5 979.6 +30.8
17 15.04 В 3 н/о н/о +19.6 +7.7 46 +21 +21 комфорт 1014.5 978.6
20 15.04 ЮВ 3 н/о н/о +18.3 +9.4 56 +19 +19 1016.0 980.1
23 15.04 СВ 5 н/о н/о +24.2 +13.1 50 +26 +26 жарко 1017.6 981.6
02 16.04 В 5 н/о 6/6 1500 м
[]
+29.2 +8.8 28 +29 +32 жарко 1015.5 979.6 +16.7
05 16.04 ЮВ 6 н/о 4/0 2000 м
[]
+29.9 +7.8 25 +29 +32 жарко 1013.0 977.2
08 16.04 В 4 н/о н/о +27.6 +7.5 28 +27 +27 жарко 1013.7 977.9
11 16.04 ЮВ 3 н/о н/о +22.6 +8.7 41 +24 +24 комфорт 1015.7 979.8
14 16.04 ЮВ 4 н/о н/о +21.7 +9.6 46 +23 +23 комфорт 1015.3 979.4 +30.9
17 16.04 В 2 н/о н/о +20.2 +9.7 51 +22 +22 комфорт 1014.5 978.6
20 16.04 В 3 н/о н/о +19.5 +13.0 66 +21 +21 комфорт 1015.5 979.6
23 16.04 СВ 6 н/о н/о +25.1 +13.6 49 +27 +27 жарко 1016.9 981.0
02 17.04 В 6 н/о 1/0 2000 м
[]
+29.2 +8.3 27 +29 +35 жарко 1015.5 979.6 +18.4
05 17.04 В 4 н/о 5/0 2000 м
[]
+31.5 +9.1 25 +31 +35 жарко 1013.2 977.4
08 17.04 В 4 н/о н/о +28.5 +7.7 27 +28 +28 жарко 1013.8 978.0
11 17.04 ЮВ 3 н/о н/о +23.3 +9.0 40 +25 +25 комфорт 1016.1 980.2
14 17.04 В 5 н/о н/о +22.6 +9.7 44 +24 +24 комфорт 1016.2 980.3 +31.9
17 17.04 В 2 н/о н/о +20.1 +9.4 50 +22 +22 комфорт 1015.5 979.6
20 17.04 В 4 н/о н/о +17.6 +9.0 57 +17 +17 1016.3 980.4
23 17.04 В 5 н/о н/о +24.3 +13.2 50 +26 +26 жарко 1018.0 982.0
02 18.04 В 7 н/о н/о +29.5 +10.6 31 +30 +30 жарко 1016.3 980.4 +16.6
05 18.04 ЮВ 6 н/о 1/0 2000 м
[]
+30.1 +8.5 26 +29 +33 жарко 1013.7 977.9
08 18.04 В 5 н/о 8/0
[]
+27.9 +8.2 29 +28 +28 жарко 1014.8 978.9
11 18.04 ЮВ 3 н/о н/о +22.6 +9.7 44 +24 +24 комфорт 1016.9 981.0
14 18.04 ЮВ 4 н/о н/о +22.7 +9.1 42 +24 +24 комфорт 1016.8 980.9 +30.9

 

Местоположение метеостанции Хьюэнден (Квинсленд, Австралия): широта -20.82 долгота 144.23 высота над уровнем моря 316 м.

В архиве по умолчанию представлена погода в Хьюэндене за последнюю неделю. Архивные данные за месяц целиком и за предыдущие месяцы, начиная с января 2011 года, Вы можете получить, выбрав интересующий диапазон дат из раскрывающегося списка и нажав кнопку "Ввод!".


*Определитесь, кто Вы:
робот инопланетянин человек

Внимание! Время в таблицах - всемирное. Для получения местного времени необходимо прибавить поправку, которая равна 10 ч.

Смотрите также архив погоды в соседних городах и на ближайших метеорологических станциях:

Погода в Ричмонд аэропорту (Квинсленд, Австралия) (117 км)
Погода в Уинтоне (Квинсленд, Австралия) (209 км)
Погода в Джулия Крик (Квинсленд, Австралия) (261 км)
Погода в Вулшеде (Квинсленд, Австралия) (286 км)
Погода в Джорджтауне (Квинсленд, Австралия) (290 км)
Погода в Лонгриче (Квинсленд, Австралия) (290 км)
Погода в Таунсвилле (Квинсленд, Австралия) (317 км)
Погода в Лусинде (Квинсленд, Австралия) (342 км)
Погода в Эре (Квинсленд, Австралия) (355 км)
Погода в Аэропорту Трепелл (Квинсленд, Австралия) (365 км)

Пояснения к столбцам:

Ветер - указаны скорость ветра в м/с - средняя за 10 мин, порывы в срок и между сроками (в фигурных скобках) и направление, откуда дует ветер: С - северный, СВ - северо-восточный, В - восточный, ЮВ - юго-восточный, Ю - южный, ЮЗ - юго-западный, З - западный, СЗ - северо-западный.
Видимость - горизонтальная дальность видимости в метрах или километрах. При видимости от 1 до 10 км при отсутствии осадков обычно наблюдается дымка, при ухудшении видимости до 1 км и менее - туман. В сухую погоду видимость может ухудшаться дымом, пылью или мглою.
Явления - указаны атмосферные явления, наблюдавшиеся в срок или в последний час перед сроком; фигурными скобками обозначены явления, наблюдавшиеся между сроками (за 1-3 часа до срока); квадратными скобками обозначены град или гололедные отложения с указанием их диаметра в мм.
Облачность - указаны через наклонную черту общая и нижняя облачность в баллах и высота нижней границы облаков в метрах; квадратными скобками обозначены формы облаков: Ci - перистые, Cs - перисто-слоистые, Cc - перисто-кучевые, Ac - высококучевые, As - высокослоистые, Sc - слоисто-кучевые, Ns - слоисто-дождевые, Cu - кучевые, Cb - кучево-дождевые. Подробнее классификацию облаков см. в Атласе облаков (PDF).
T - Температура воздуха - температура, измеренная на высоте 2 м над землей.
Td - Температура точки росы - температура, при понижении до которой содержащийся в воздухе водяной пар достигнет насыщения.
f - Относительная влажность воздуха - влажноcть воздуха, измеренная на высоте 2 м над землей.
Te - Эффективная температура - температура, которую ощущает одетый по сезону человек в тени. Характеристика душности погоды. При расчете учитывается влияние влажности воздуха и скорости ветра на теплоощущения человека.
Tes - Эффективная температура на солнце - температура, которую ощущает человек, с поправкой на солнечный нагрев. Характеристика знойности погоды. Зависит от высоты солнца над горизонтом, облачности и скорости ветра. Ночью, в пасмурную погоду, а также при ветре 12 м/с и более поправка равна нулю.
P - Атмосферное давление - приведенное к уровню моря атмосферное давление.
Po - Атмосферное давление - измеренное на уровне метеостанции атмосферное давление.
Tmin - Минимальная температура - минимум температуры воздуха на высоте 2 м над землей.
Tmax - Максимальная температура - максимум температуры воздуха на высоте 2 м над землей.
R - Количество осадков - Количество выпавших осадков за период времени, мм. При наведении курсора мыши на число - период времени, за который выпало указанное количество осадков.
R24 - Количество осадков - Количество выпавших осадков за 24 часа, мм.
S - Снежный покров - Высота снежного покрова, см. При наведении курсора мыши на число - состояние снежного покрова и степень покрытия местности в баллах.